This is the latest recevied weather packets stored in our database for station/object ALAKES. If no packets are shown the sender has not sent any weather packets the latest 10 day(s).
| Time | Temp. | Humidity | Pressure | Rain* | Wind** | Luminosity | Snow |
|---|---|---|---|---|---|---|---|
| 1787603562 | 18.89° C | 23% | - | 0 mm | - | - | - |
| 1787602934 | 19.44° C | 22% | - | 0 mm | - | - | - |
| 1787602274 | 18.89° C | 22% | - | 0 mm | - | - | - |
| 1787601659 | 40.56° C | - | - | - | - | - | - |
| 1787601618 | 40.56° C | - | - | - | - | - | - |
| 1787600961 | 18.89° C | 23% | - | 0 mm | - | - | - |
| 1787600315 | 18.89° C | 24% | - | 0 mm | - | - | - |
| 1787599685 | 18.33° C | 25% | - | 0 mm | - | - | - |
| 1787599029 | -26.67° C | - | - | - | - | - | - |
| 1787598481 | 17.22° C | 26% | - | 0 mm | - | - | - |
| 1787598379 | 17.22° C | 26% | - | 0 mm | - | - | - |
| 1787597749 | 17.78° C | 25% | - | 0 mm | - | - | - |
| 1787597103 | 17.78° C | 25% | - | 0 mm | - | - | - |
| 1787596465 | 17.22° C | 26% | - | 0 mm | - | - | - |
| 1787595813 | 16.11° C | 26% | - | 0 mm | - | - | - |
| 1787595146 | 16.67° C | 28% | - | 0 mm | - | - | - |
| 1787594517 | 16.11° C | 26% | - | 0 mm | - | - | - |
| 1787593864 | 16.11° C | 28% | - | 0 mm | - | - | - |
| 1787593234 | 15.56° C | 29% | - | 0 mm | - | - | - |
| 1787592590 | 15.56° C | 27% | - | 0 mm | - | - | - |
| 1787591932 | 15.56° C | 31% | - | 0 mm | - | - | - |
| 1787591284 | 15.56° C | 30% | - | 0 mm | - | - | - |
| 1787590648 | 15.56° C | 30% | - | 0 mm | - | - | - |
| 1787590006 | 15.56° C | 30% | - | 0 mm | - | - | - |
| 1787589345 | 15° C | 33% | - | 0 mm | - | - | - |
* Rain latest 24 hours (hover to see other rain measurements)
** Current wind speed in m/s (hover to see current wind gust speed)